Location: Bittelbronn
(48.4454°N, 8.5870°E)
Time: 18:22:19
(UTC+00:00)

Cosmos 1242 Rocket - Pass Details

Date: 23 May 2024
Orbit: 321 x 335 km, 81.1° (Epoch: 16 June)

Event Time Altitude Azimuth Distance (km) Brightness Sun altitude
Exits shadow 02:41:46 - 256° (WSW) 1,486 4.5 -7.8°
Reaches altitude 10° 02:42:19 10° 265° (W) 1,362 4.4 -7.8°
Maximum altitude 02:43:45 13° 294° (WNW) 1,215 4.4 -7.6°
Drops below altitude 10° 02:45:12 10° 323° (NW) 1,374 4.9 -7.4°
Sets 02:48:02 0° 354° (N) 2,234 6.5 -7.1°
